Location: Pradons
(44.4746°N, 4.3578°E)
Time: 19:32:26
(UTC+00:00)

Cosmos 1703 - Pass Details

Date: 14 August 2020
Orbit: 523 x 541 km, 82.5° (Epoch: 01 October)

Event Time Altitude Azimuth Distance (km) Brightness Sun altitude
Rises 01:20:52 0° 11° (N) 2,709 8.0 -27.5°
Reaches altitude 10° 01:24:10 10° 40° (NE) 1,808 6.9 -27.3°
Maximum altitude 01:25:59 13° 67° (ENE) 1,631 6.3 -27.1°
Drops below altitude 10° 01:27:47 10° 95° (E) 1,797 6.2 -27.0°
Enters shadow 01:28:47 - 107° (ESE) 2,008 6.3 -26.9°
